site,time,unit,value
Abertysswg,2024-05-05T00:05:00+01:00,MW,-3.493
Abertysswg,2024-05-05T00:10:00+01:00,MW,-3.433
Abertysswg,2024-05-05T00:15:00+01:00,MW,-3.388
Abertysswg,2024-05-05T00:20:00+01:00,MW,-3.341
Abertysswg,2024-05-05T00:25:00+01:00,MW,-3.291
Abertysswg,2024-05-05T00:30:00+01:00,MW,-3.272
Abertysswg,2024-05-05T00:35:00+01:00,MW,-3.259
Abertysswg,2024-05-05T00:40:00+01:00,MW,-3.2830000000000004
Abertysswg,2024-05-05T00:45:00+01:00,MW,-3.2769999999999997
Abertysswg,2024-05-05T00:50:00+01:00,MW,-3.268
Abertysswg,2024-05-05T00:55:00+01:00,MW,-3.2140000000000004
Abertysswg,2024-05-05T01:00:00+01:00,MW,-3.1919999999999997
Abertysswg,2024-05-05T01:05:00+01:00,MW,-3.162
Abertysswg,2024-05-05T01:10:00+01:00,MW,-3.16
Abertysswg,2024-05-05T01:15:00+01:00,MW,-3.143
Abertysswg,2024-05-05T01:20:00+01:00,MW,-3.047
Abertysswg,2024-05-05T01:25:00+01:00,MW,-3.0490000000000004
Abertysswg,2024-05-05T01:30:00+01:00,MW,-3.052
Abertysswg,2024-05-05T01:35:00+01:00,MW,-3.081
Abertysswg,2024-05-05T01:40:00+01:00,MW,-3.031
Abertysswg,2024-05-05T01:45:00+01:00,MW,-3.01
Abertysswg,2024-05-05T01:50:00+01:00,MW,-2.955
Abertysswg,2024-05-05T01:55:00+01:00,MW,-3.011
Abertysswg,2024-05-05T02:00:00+01:00,MW,-3.059
Abertysswg,2024-05-05T02:05:00+01:00,MW,-3.048
Abertysswg,2024-05-05T02:10:00+01:00,MW,-3.024
Abertysswg,2024-05-05T02:15:00+01:00,MW,-3.0629999999999997
Abertysswg,2024-05-05T02:20:00+01:00,MW,-3.022
Abertysswg,2024-05-05T02:25:00+01:00,MW,-3.014
Abertysswg,2024-05-05T02:30:00+01:00,MW,-3.023
Abertysswg,2024-05-05T02:35:00+01:00,MW,-2.997
Abertysswg,2024-05-05T02:40:00+01:00,MW,-2.925
Abertysswg,2024-05-05T02:45:00+01:00,MW,-2.991
Abertysswg,2024-05-05T02:50:00+01:00,MW,-2.873
Abertysswg,2024-05-05T02:55:00+01:00,MW,-2.8819999999999997
Abertysswg,2024-05-05T03:00:00+01:00,MW,-2.8880000000000003
Abertysswg,2024-05-05T03:05:00+01:00,MW,-2.851
Abertysswg,2024-05-05T03:10:00+01:00,MW,-2.855
Abertysswg,2024-05-05T03:15:00+01:00,MW,-2.8810000000000002
Abertysswg,2024-05-05T03:20:00+01:00,MW,-2.852
Abertysswg,2024-05-05T03:25:00+01:00,MW,-2.8320000000000003
Abertysswg,2024-05-05T03:30:00+01:00,MW,-2.8120000000000003
Abertysswg,2024-05-05T03:35:00+01:00,MW,-2.8000000000000003
Abertysswg,2024-05-05T03:40:00+01:00,MW,-2.804
Abertysswg,2024-05-05T03:45:00+01:00,MW,-2.814
Abertysswg,2024-05-05T03:50:00+01:00,MW,-2.804
Abertysswg,2024-05-05T03:55:00+01:00,MW,-2.789
Abertysswg,2024-05-05T04:00:00+01:00,MW,-2.798
Abertysswg,2024-05-05T04:05:00+01:00,MW,-2.767
Abertysswg,2024-05-05T04:10:00+01:00,MW,-2.791
Abertysswg,2024-05-05T04:15:00+01:00,MW,-2.8
Abertysswg,2024-05-05T04:20:00+01:00,MW,-2.813
Abertysswg,2024-05-05T04:25:00+01:00,MW,-2.723
Abertysswg,2024-05-05T04:30:00+01:00,MW,-2.815
Abertysswg,2024-05-05T04:35:00+01:00,MW,-2.798
Abertysswg,2024-05-05T04:40:00+01:00,MW,-2.778
Abertysswg,2024-05-05T04:45:00+01:00,MW,-2.757
Abertysswg,2024-05-05T04:50:00+01:00,MW,-2.782
Abertysswg,2024-05-05T04:55:00+01:00,MW,-2.754
Abertysswg,2024-05-05T05:00:00+01:00,MW,-2.7769999999999997
Abertysswg,2024-05-05T05:05:00+01:00,MW,-2.729
Abertysswg,2024-05-05T05:10:00+01:00,MW,-2.683
Abertysswg,2024-05-05T05:15:00+01:00,MW,-2.7489999999999997
Abertysswg,2024-05-05T05:20:00+01:00,MW,-2.738
Abertysswg,2024-05-05T05:25:00+01:00,MW,-2.7169999999999996
Abertysswg,2024-05-05T05:30:00+01:00,MW,-2.7430000000000003
Abertysswg,2024-05-05T05:35:00+01:00,MW,-2.7350000000000003
Abertysswg,2024-05-05T05:40:00+01:00,MW,-2.7329999999999997
Abertysswg,2024-05-05T05:45:00+01:00,MW,-2.746
Abertysswg,2024-05-05T05:50:00+01:00,MW,-2.737
Abertysswg,2024-05-05T05:55:00+01:00,MW,-2.806
Abertysswg,2024-05-05T06:00:00+01:00,MW,-2.842
Abertysswg,2024-05-05T06:05:00+01:00,MW,-2.8129999999999997
Abertysswg,2024-05-05T06:10:00+01:00,MW,-2.823
Abertysswg,2024-05-05T06:15:00+01:00,MW,-2.806
Abertysswg,2024-05-05T06:20:00+01:00,MW,-2.798
Abertysswg,2024-05-05T06:25:00+01:00,MW,-2.7359999999999998
Abertysswg,2024-05-05T06:30:00+01:00,MW,-2.812
Abertysswg,2024-05-05T06:35:00+01:00,MW,-2.776
Abertysswg,2024-05-05T06:40:00+01:00,MW,-2.754
Abertysswg,2024-05-05T06:45:00+01:00,MW,-2.7439999999999998
Abertysswg,2024-05-05T06:50:00+01:00,MW,-2.7169999999999996
Abertysswg,2024-05-05T06:55:00+01:00,MW,-2.746
Abertysswg,2024-05-05T07:00:00+01:00,MW,-2.7920000000000003
Abertysswg,2024-05-05T07:05:00+01:00,MW,-2.801
Abertysswg,2024-05-05T07:10:00+01:00,MW,-2.832
Abertysswg,2024-05-05T07:15:00+01:00,MW,-2.762
Abertysswg,2024-05-05T07:20:00+01:00,MW,-2.802
Abertysswg,2024-05-05T07:25:00+01:00,MW,-2.87
Abertysswg,2024-05-05T07:30:00+01:00,MW,-2.925
Abertysswg,2024-05-05T07:35:00+01:00,MW,-3.0520000000000005
Abertysswg,2024-05-05T07:40:00+01:00,MW,-3.1060000000000003
Abertysswg,2024-05-05T07:45:00+01:00,MW,-3.111
Abertysswg,2024-05-05T07:50:00+01:00,MW,-3.097
Abertysswg,2024-05-05T07:55:00+01:00,MW,-3.16
Abertysswg,2024-05-05T08:00:00+01:00,MW,-3.307
Abertysswg,2024-05-05T08:05:00+01:00,MW,-3.23
Abertysswg,2024-05-05T08:10:00+01:00,MW,-3.2039999999999997
Abertysswg,2024-05-05T08:15:00+01:00,MW,-3.227
Abertysswg,2024-05-05T08:20:00+01:00,MW,-3.1580000000000004
Abertysswg,2024-05-05T08:25:00+01:00,MW,-3.258
Abertysswg,2024-05-05T08:30:00+01:00,MW,-3.3609999999999998
Abertysswg,2024-05-05T08:35:00+01:00,MW,-3.3890000000000002
Abertysswg,2024-05-05T08:40:00+01:00,MW,-3.379
Abertysswg,2024-05-05T08:45:00+01:00,MW,-3.408
Abertysswg,2024-05-05T08:50:00+01:00,MW,-3.416
Abertysswg,2024-05-05T08:55:00+01:00,MW,-3.415
Abertysswg,2024-05-05T09:00:00+01:00,MW,-3.415
Abertysswg,2024-05-05T09:05:00+01:00,MW,-3.515
Abertysswg,2024-05-05T09:10:00+01:00,MW,-3.484
Abertysswg,2024-05-05T09:15:00+01:00,MW,-3.502
Abertysswg,2024-05-05T09:20:00+01:00,MW,-3.567
Abertysswg,2024-05-05T09:25:00+01:00,MW,-3.48
Abertysswg,2024-05-05T09:30:00+01:00,MW,-3.525
Abertysswg,2024-05-05T09:35:00+01:00,MW,-3.5730000000000004
Abertysswg,2024-05-05T09:40:00+01:00,MW,-3.532
Abertysswg,2024-05-05T09:45:00+01:00,MW,-3.716
Abertysswg,2024-05-05T09:50:00+01:00,MW,-3.624
Abertysswg,2024-05-05T09:55:00+01:00,MW,-3.5650000000000004
Abertysswg,2024-05-05T10:00:00+01:00,MW,-3.622
Abertysswg,2024-05-05T10:05:00+01:00,MW,-3.622
Abertysswg,2024-05-05T10:10:00+01:00,MW,-3.7169999999999996
Abertysswg,2024-05-05T10:15:00+01:00,MW,-3.759
Abertysswg,2024-05-05T10:20:00+01:00,MW,-3.517
Abertysswg,2024-05-05T10:25:00+01:00,MW,-3.5700000000000003
Abertysswg,2024-05-05T10:30:00+01:00,MW,-3.474
Abertysswg,2024-05-05T10:35:00+01:00,MW,-3.5060000000000002
Abertysswg,2024-05-05T10:40:00+01:00,MW,-3.3689999999999998
Abertysswg,2024-05-05T10:45:00+01:00,MW,-3.581
Abertysswg,2024-05-05T10:50:00+01:00,MW,-3.583
Abertysswg,2024-05-05T10:55:00+01:00,MW,-3.5460000000000003
Abertysswg,2024-05-05T11:00:00+01:00,MW,-3.687
Abertysswg,2024-05-05T11:05:00+01:00,MW,-3.882
Abertysswg,2024-05-05T11:10:00+01:00,MW,-3.9739999999999998
Abertysswg,2024-05-05T11:15:00+01:00,MW,-3.973
Abertysswg,2024-05-05T11:20:00+01:00,MW,-4.2059999999999995
Abertysswg,2024-05-05T11:25:00+01:00,MW,-4.126
Abertysswg,2024-05-05T11:30:00+01:00,MW,-3.97
Abertysswg,2024-05-05T11:35:00+01:00,MW,-3.909
Abertysswg,2024-05-05T11:40:00+01:00,MW,-4.065
Abertysswg,2024-05-05T11:45:00+01:00,MW,-4.126
Abertysswg,2024-05-05T11:50:00+01:00,MW,-4.125
Abertysswg,2024-05-05T11:55:00+01:00,MW,-4.343
Abertysswg,2024-05-05T12:00:00+01:00,MW,-4.426
Abertysswg,2024-05-05T12:05:00+01:00,MW,-4.526
Abertysswg,2024-05-05T12:10:00+01:00,MW,-4.588
Abertysswg,2024-05-05T12:15:00+01:00,MW,-4.694
Abertysswg,2024-05-05T12:20:00+01:00,MW,-4.563
Abertysswg,2024-05-05T12:25:00+01:00,MW,-4.534
Abertysswg,2024-05-05T12:30:00+01:00,MW,-4.43
Abertysswg,2024-05-05T12:35:00+01:00,MW,-4.18
Abertysswg,2024-05-05T12:40:00+01:00,MW,-4.276
Abertysswg,2024-05-05T12:45:00+01:00,MW,-4.271
Abertysswg,2024-05-05T12:50:00+01:00,MW,-4.348
Abertysswg,2024-05-05T12:55:00+01:00,MW,-4.228
Abertysswg,2024-05-05T13:00:00+01:00,MW,-4.045999999999999
Abertysswg,2024-05-05T13:05:00+01:00,MW,-4.182
Abertysswg,2024-05-05T13:10:00+01:00,MW,-4.221
Abertysswg,2024-05-05T13:15:00+01:00,MW,-4.322
Abertysswg,2024-05-05T13:20:00+01:00,MW,-4.41
Abertysswg,2024-05-05T13:25:00+01:00,MW,-4.435
Abertysswg,2024-05-05T13:30:00+01:00,MW,-4.275
Abertysswg,2024-05-05T13:35:00+01:00,MW,-4.147
Abertysswg,2024-05-05T13:40:00+01:00,MW,-4.21
Abertysswg,2024-05-05T13:45:00+01:00,MW,-4.2620000000000005
Abertysswg,2024-05-05T13:50:00+01:00,MW,-4.141
Abertysswg,2024-05-05T13:55:00+01:00,MW,-4.268
Abertysswg,2024-05-05T14:00:00+01:00,MW,-4.316
Abertysswg,2024-05-05T14:05:00+01:00,MW,-4.309
Abertysswg,2024-05-05T14:10:00+01:00,MW,-4.215
Abertysswg,2024-05-05T14:15:00+01:00,MW,-4.272
Abertysswg,2024-05-05T14:20:00+01:00,MW,-4.273
Abertysswg,2024-05-05T14:25:00+01:00,MW,-4.359
Abertysswg,2024-05-05T14:30:00+01:00,MW,-4.238
Abertysswg,2024-05-05T14:35:00+01:00,MW,-4.104
Abertysswg,2024-05-05T14:40:00+01:00,MW,-4.218
Abertysswg,2024-05-05T14:45:00+01:00,MW,-4.218
Abertysswg,2024-05-05T14:50:00+01:00,MW,-4.208
Abertysswg,2024-05-05T14:55:00+01:00,MW,-4.267
Abertysswg,2024-05-05T15:00:00+01:00,MW,-4.232
Abertysswg,2024-05-05T15:05:00+01:00,MW,-4.243
Abertysswg,2024-05-05T15:10:00+01:00,MW,-4.287
Abertysswg,2024-05-05T15:15:00+01:00,MW,-4.304
Abertysswg,2024-05-05T15:20:00+01:00,MW,-4.36
Abertysswg,2024-05-05T15:25:00+01:00,MW,-4.5760000000000005
Abertysswg,2024-05-05T15:30:00+01:00,MW,-4.531000000000001
Abertysswg,2024-05-05T15:35:00+01:00,MW,-4.441
Abertysswg,2024-05-05T15:40:00+01:00,MW,-4.55
Abertysswg,2024-05-05T15:45:00+01:00,MW,-4.559
Abertysswg,2024-05-05T15:50:00+01:00,MW,-4.5600000000000005
Abertysswg,2024-05-05T15:55:00+01:00,MW,-4.584
Abertysswg,2024-05-05T16:00:00+01:00,MW,-4.574
Abertysswg,2024-05-05T16:05:00+01:00,MW,-4.585
Abertysswg,2024-05-05T16:10:00+01:00,MW,-4.514
Abertysswg,2024-05-05T16:15:00+01:00,MW,-4.509
Abertysswg,2024-05-05T16:20:00+01:00,MW,-4.531000000000001
Abertysswg,2024-05-05T16:25:00+01:00,MW,-4.603
Abertysswg,2024-05-05T16:30:00+01:00,MW,-4.645
Abertysswg,2024-05-05T16:35:00+01:00,MW,-4.7170000000000005
Abertysswg,2024-05-05T16:40:00+01:00,MW,-4.6770000000000005
Abertysswg,2024-05-05T16:45:00+01:00,MW,-4.6690000000000005
Abertysswg,2024-05-05T16:50:00+01:00,MW,-4.6419999999999995
Abertysswg,2024-05-05T16:55:00+01:00,MW,-4.721
Abertysswg,2024-05-05T17:00:00+01:00,MW,-4.529
Abertysswg,2024-05-05T17:05:00+01:00,MW,-4.587
Abertysswg,2024-05-05T17:10:00+01:00,MW,-4.761
Abertysswg,2024-05-05T17:15:00+01:00,MW,-4.776
Abertysswg,2024-05-05T17:20:00+01:00,MW,-4.567
Abertysswg,2024-05-05T17:25:00+01:00,MW,-4.533
Abertysswg,2024-05-05T17:30:00+01:00,MW,-4.668
Abertysswg,2024-05-05T17:35:00+01:00,MW,-4.702999999999999
Abertysswg,2024-05-05T17:40:00+01:00,MW,-4.695
Abertysswg,2024-05-05T17:45:00+01:00,MW,-4.62
Abertysswg,2024-05-05T17:50:00+01:00,MW,-4.55
Abertysswg,2024-05-05T17:55:00+01:00,MW,-4.607
Abertysswg,2024-05-05T18:00:00+01:00,MW,-4.5889999999999995
Abertysswg,2024-05-05T18:05:00+01:00,MW,-4.613
Abertysswg,2024-05-05T18:10:00+01:00,MW,-4.781
Abertysswg,2024-05-05T18:15:00+01:00,MW,-4.788
Abertysswg,2024-05-05T18:20:00+01:00,MW,-4.687
Abertysswg,2024-05-05T18:25:00+01:00,MW,-4.633
Abertysswg,2024-05-05T18:30:00+01:00,MW,-4.622
Abertysswg,2024-05-05T18:35:00+01:00,MW,-4.638
Abertysswg,2024-05-05T18:40:00+01:00,MW,-4.7139999999999995
Abertysswg,2024-05-05T18:45:00+01:00,MW,-4.746
Abertysswg,2024-05-05T18:50:00+01:00,MW,-4.644
Abertysswg,2024-05-05T18:55:00+01:00,MW,-4.6450000000000005
Abertysswg,2024-05-05T19:00:00+01:00,MW,-4.536
Abertysswg,2024-05-05T19:05:00+01:00,MW,-4.604
Abertysswg,2024-05-05T19:10:00+01:00,MW,-4.6240000000000006
Abertysswg,2024-05-05T19:15:00+01:00,MW,-4.551
Abertysswg,2024-05-05T19:20:00+01:00,MW,-4.489
Abertysswg,2024-05-05T19:25:00+01:00,MW,-4.526
Abertysswg,2024-05-05T19:30:00+01:00,MW,-4.453
Abertysswg,2024-05-05T19:35:00+01:00,MW,-4.481
Abertysswg,2024-05-05T19:40:00+01:00,MW,-4.531
Abertysswg,2024-05-05T19:45:00+01:00,MW,-4.484999999999999
Abertysswg,2024-05-05T19:50:00+01:00,MW,-4.432
Abertysswg,2024-05-05T19:55:00+01:00,MW,-4.447
Abertysswg,2024-05-05T20:00:00+01:00,MW,-4.422
Abertysswg,2024-05-05T20:05:00+01:00,MW,-4.428
Abertysswg,2024-05-05T20:10:00+01:00,MW,-4.38
Abertysswg,2024-05-05T20:15:00+01:00,MW,-4.3020000000000005
Abertysswg,2024-05-05T20:20:00+01:00,MW,-4.265000000000001
Abertysswg,2024-05-05T20:25:00+01:00,MW,-4.294
Abertysswg,2024-05-05T20:30:00+01:00,MW,-4.374
Abertysswg,2024-05-05T20:35:00+01:00,MW,-4.324
Abertysswg,2024-05-05T20:40:00+01:00,MW,-4.366
Abertysswg,2024-05-05T20:45:00+01:00,MW,-4.348
Abertysswg,2024-05-05T20:50:00+01:00,MW,-4.422000000000001
Abertysswg,2024-05-05T20:55:00+01:00,MW,-4.383
Abertysswg,2024-05-05T21:00:00+01:00,MW,-4.383
Abertysswg,2024-05-05T21:05:00+01:00,MW,-4.392
Abertysswg,2024-05-05T21:10:00+01:00,MW,-4.458
Abertysswg,2024-05-05T21:15:00+01:00,MW,-4.39
Abertysswg,2024-05-05T21:20:00+01:00,MW,-4.37
Abertysswg,2024-05-05T21:25:00+01:00,MW,-4.334
Abertysswg,2024-05-05T21:30:00+01:00,MW,-4.354
Abertysswg,2024-05-05T21:35:00+01:00,MW,-4.397
Abertysswg,2024-05-05T21:40:00+01:00,MW,-4.378
Abertysswg,2024-05-05T21:45:00+01:00,MW,-4.319
Abertysswg,2024-05-05T21:50:00+01:00,MW,-4.266
Abertysswg,2024-05-05T21:55:00+01:00,MW,-4.218999999999999
Abertysswg,2024-05-05T22:00:00+01:00,MW,-4.232
Abertysswg,2024-05-05T22:05:00+01:00,MW,-4.142
Abertysswg,2024-05-05T22:10:00+01:00,MW,-4.17
Abertysswg,2024-05-05T22:15:00+01:00,MW,-4.058
Abertysswg,2024-05-05T22:20:00+01:00,MW,-4.031
Abertysswg,2024-05-05T22:25:00+01:00,MW,-4.013
Abertysswg,2024-05-05T22:30:00+01:00,MW,-3.952
Abertysswg,2024-05-05T22:35:00+01:00,MW,-3.9099999999999997
Abertysswg,2024-05-05T22:40:00+01:00,MW,-3.904
Abertysswg,2024-05-05T22:45:00+01:00,MW,-3.924
Abertysswg,2024-05-05T22:50:00+01:00,MW,-3.975
Abertysswg,2024-05-05T22:55:00+01:00,MW,-3.899
Abertysswg,2024-05-05T23:00:00+01:00,MW,-3.8680000000000003
Abertysswg,2024-05-05T23:05:00+01:00,MW,-3.807
Abertysswg,2024-05-05T23:10:00+01:00,MW,-3.7990000000000004
Abertysswg,2024-05-05T23:15:00+01:00,MW,-3.66
Abertysswg,2024-05-05T23:20:00+01:00,MW,-3.664
Abertysswg,2024-05-05T23:25:00+01:00,MW,-3.623
Abertysswg,2024-05-05T23:30:00+01:00,MW,-3.608
Abertysswg,2024-05-05T23:35:00+01:00,MW,-3.6
Abertysswg,2024-05-05T23:40:00+01:00,MW,-3.514
Abertysswg,2024-05-05T23:45:00+01:00,MW,-3.478
Abertysswg,2024-05-05T23:50:00+01:00,MW,-3.493
Abertysswg,2024-05-05T23:55:00+01:00,MW,-3.441
Abertysswg,2024-05-06T00:00:00+01:00,MW,-3.302
